Time,TemperatureF,DewpointF,PressureIn,WindDirection,WindDirectionDegrees,WindSpeedMPH,WindSpeedGustMPH,Humidity,HourlyPrecipIn,Conditions,Clouds,dailyrainin,SoftwareType,DateUTC
2013-02-19 00:04:00,65.2,53.5,29.91,WNW,293,5.4,6.7,66,0.00,,,0.00,WUHU216HW,2013-02-18 21:04:00,
2013-02-19 00:09:00,65.2,53.5,29.91,WNW,293,6.0,8.1,66,0.00,,,0.00,WUHU216HW,2013-02-18 21:09:00,
2013-02-19 00:14:00,65.2,53.5,29.91,WNW,293,4.3,8.1,66,0.00,,,0.00,WUHU216HW,2013-02-18 21:14:00,
2013-02-19 00:19:00,65.2,53.5,29.91,WNW,293,4.3,6.7,66,0.00,,,0.00,WUHU216HW,2013-02-18 21:19:00,
2013-02-19 00:24:00,65.2,53.5,29.91,NNW,338,5.4,7.2,66,0.00,,,0.00,WUHU216HW,2013-02-18 21:24:00,
2013-02-19 00:29:00,65.0,53.3,29.91,WNW,293,5.4,7.2,66,0.00,,,0.00,WUHU216HW,2013-02-18 21:29:00,
2013-02-19 00:34:00,65.0,53.3,29.91,NW,315,4.9,8.1,66,0.00,,,0.00,WUHU216HW,2013-02-18 21:34:00,
2013-02-19 00:39:00,65.0,53.3,29.91,NW,315,5.4,8.1,66,0.00,,,0.00,WUHU216HW,2013-02-18 21:39:00,
2013-02-19 00:44:00,65.0,53.3,29.91,NW,315,4.5,7.6,66,0.00,,,0.00,WUHU216HW,2013-02-18 21:44:00,
2013-02-19 00:49:00,65.0,53.3,29.91,WNW,293,4.5,5.6,66,0.00,,,0.00,WUHU216HW,2013-02-18 21:49:00,
2013-02-19 00:54:00,65.0,53.3,29.91,North,0,2.9,6.5,66,0.00,,,0.00,WUHU216HW,2013-02-18 21:54:00,
2013-02-19 00:59:00,65.0,53.3,29.91,NNW,338,4.9,7.4,66,0.00,,,0.00,WUHU216HW,2013-02-18 21:59:00,
2013-02-19 01:04:00,65.0,53.3,29.91,NW,315,5.6,7.4,66,0.00,,,0.00,WUHU216HW,2013-02-18 22:04:00,
2013-02-19 01:09:00,65.0,53.3,29.91,NW,315,4.7,7.4,66,0.00,,,0.00,WUHU216HW,2013-02-18 22:09:00,
2013-02-19 01:14:00,65.0,53.3,29.91,NW,315,6.3,7.4,66,0.00,,,0.00,WUHU216HW,2013-02-18 22:14:00,
2013-02-19 01:19:00,65.0,53.3,29.91,NW,315,3.4,6.7,66,0.00,,,0.00,WUHU216HW,2013-02-18 22:19:00,
2013-02-19 01:24:00,64.8,53.2,29.91,WNW,293,3.8,6.3,66,0.00,,,0.00,WUHU216HW,2013-02-18 22:24:00,
2013-02-19 01:29:00,64.4,52.8,29.91,West,270,4.3,5.4,66,0.00,,,0.00,WUHU216HW,2013-02-18 22:29:00,
2013-02-19 01:34:00,64.4,52.8,29.90,NW,315,3.6,5.4,66,0.00,,,0.00,WUHU216HW,2013-02-18 22:34:00,
2013-02-19 01:39:00,64.3,52.7,29.90,NW,315,2.9,4.7,66,0.00,,,0.00,WUHU216HW,2013-02-18 22:39:00,
2013-02-19 01:44:00,64.3,53.5,29.90,WNW,293,2.5,4.0,68,0.00,,,0.00,WUHU216HW,2013-02-18 22:44:00,
2013-02-19 01:49:00,64.3,53.5,29.90,WNW,293,4.7,4.7,68,0.00,,,0.00,WUHU216HW,2013-02-18 22:49:00,
2013-02-19 01:54:00,64.4,54.1,29.90,NW,315,4.9,6.5,69,0.00,,,0.00,WUHU216HW,2013-02-18 22:54:00,
2013-02-19 01:59:00,64.6,54.3,29.90,WNW,293,3.8,6.9,69,0.00,,,0.00,WUHU216HW,2013-02-18 22:59:00,
2013-02-19 02:04:00,64.6,54.3,29.89,NNW,338,5.1,6.9,69,0.00,,,0.00,WUHU216HW,2013-02-18 23:04:00,
2013-02-19 02:09:00,64.8,54.9,29.89,NW,315,4.9,6.0,70,0.00,,,0.00,WUHU216HW,2013-02-18 23:09:00,
2013-02-19 02:14:00,64.8,54.9,29.89,NW,315,5.1,6.3,70,0.00,,,0.00,WUHU216HW,2013-02-18 23:14:00,
2013-02-19 02:19:00,64.8,54.9,29.89,NW,315,6.7,6.7,70,0.00,,,0.00,WUHU216HW,2013-02-18 23:19:00,
2013-02-19 02:24:00,64.6,54.7,29.89,WNW,293,6.9,7.8,70,0.00,,,0.00,WUHU216HW,2013-02-18 23:24:00,
2013-02-19 02:29:00,64.6,54.7,29.89,WNW,293,4.7,7.8,70,0.00,,,0.00,WUHU216HW,2013-02-18 23:29:00,
2013-02-19 02:34:00,64.4,54.5,29.89,NNW,338,4.0,6.7,70,0.00,,,0.00,WUHU216HW,2013-02-18 23:34:00,
2013-02-19 02:39:00,64.4,54.9,29.89,NW,315,6.0,7.2,71,0.00,,,0.00,WUHU216HW,2013-02-18 23:39:00,
2013-02-19 02:44:00,64.4,54.9,29.89,NW,315,4.0,7.2,71,0.00,,,0.00,WUHU216HW,2013-02-18 23:44:00,
2013-02-19 02:49:00,64.4,54.9,29.89,North,0,4.7,6.9,71,0.00,,,0.00,WUHU216HW,2013-02-18 23:49:00,
2013-02-19 02:54:00,64.1,54.5,29.89,NW,315,4.0,6.9,71,0.00,,,0.00,WUHU216HW,2013-02-18 23:54:00,
2013-02-19 02:59:00,64.1,54.5,29.90,West,270,3.4,5.4,71,0.00,,,0.00,WUHU216HW,2013-02-18 23:59:00,
2013-02-19 03:04:00,63.9,54.4,29.89,WNW,293,3.6,5.4,71,0.00,,,0.00,WUHU216HW,2013-02-19 00:04:00,
2013-02-19 03:09:00,63.7,54.2,29.89,NW,315,3.4,5.1,71,0.00,,,0.00,WUHU216HW,2013-02-19 00:09:00,
2013-02-19 03:14:00,63.7,54.2,29.90,NW,315,3.4,4.7,71,0.00,,,0.00,WUHU216HW,2013-02-19 00:14:00,
2013-02-19 03:19:00,63.7,54.2,29.90,WNW,293,3.1,5.1,71,0.00,,,0.00,WUHU216HW,2013-02-19 00:19:00,
2013-02-19 03:24:00,63.5,54.0,29.89,WNW,293,4.7,5.1,71,0.00,,,0.00,WUHU216HW,2013-02-19 00:24:00,
2013-02-19 03:29:00,63.4,53.8,29.89,NW,315,3.4,4.7,71,0.00,,,0.00,WUHU216HW,2013-02-19 00:29:00,
2013-02-19 03:34:00,63.4,54.2,29.89,NW,315,2.7,4.7,72,0.00,,,0.00,WUHU216HW,2013-02-19 00:34:00,
2013-02-19 03:39:00,63.4,54.2,29.89,NW,315,3.4,4.7,72,0.00,,,0.00,WUHU216HW,2013-02-19 00:39:00,
2013-02-19 03:44:00,63.4,54.2,29.89,NNW,338,2.9,4.7,72,0.00,,,0.00,WUHU216HW,2013-02-19 00:44:00,
2013-02-19 03:49:00,63.4,54.2,29.89,NW,315,3.1,3.8,72,0.00,,,0.00,WUHU216HW,2013-02-19 00:49:00,
2013-02-19 03:54:00,63.4,54.2,29.89,NNW,338,3.6,3.8,72,0.00,,,0.00,WUHU216HW,2013-02-19 00:54:00,
2013-02-19 03:59:00,63.2,54.4,29.89,NW,315,3.4,4.7,73,0.00,,,0.00,WUHU216HW,2013-02-19 00:59:00,
2013-02-19 04:04:00,63.4,54.5,29.89,WNW,293,3.8,5.4,73,0.00,,,0.00,WUHU216HW,2013-02-19 01:04:00,
2013-02-19 04:09:00,63.4,54.5,29.89,WNW,293,4.5,5.4,73,0.00,,,0.00,WUHU216HW,2013-02-19 01:09:00,
2013-02-19 04:14:00,63.5,54.7,29.89,NNW,338,3.8,5.8,73,0.00,,,0.00,WUHU216HW,2013-02-19 01:14:00,
2013-02-19 04:19:00,63.5,54.4,29.89,NNW,338,4.3,5.8,72,0.00,,,0.00,WUHU216HW,2013-02-19 01:19:00,
2013-02-19 04:24:00,63.5,54.4,29.89,NW,315,3.1,5.4,72,0.00,,,0.00,WUHU216HW,2013-02-19 01:24:00,
2013-02-19 04:29:00,63.5,54.4,29.90,NW,315,3.4,5.4,72,0.00,,,0.00,WUHU216HW,2013-02-19 01:29:00,
2013-02-19 04:34:00,63.4,54.2,29.90,NW,315,2.5,5.4,72,0.00,,,0.00,WUHU216HW,2013-02-19 01:34:00,
2013-02-19 04:39:00,63.4,54.2,29.90,NW,315,3.6,3.8,72,0.00,,,0.00,WUHU216HW,2013-02-19 01:39:00,
2013-02-19 04:44:00,63.4,54.2,29.90,NW,315,2.2,4.0,72,0.00,,,0.00,WUHU216HW,2013-02-19 01:44:00,
2013-02-19 04:49:00,63.4,54.2,29.90,NNW,338,2.5,4.3,72,0.00,,,0.00,WUHU216HW,2013-02-19 01:49:00,
2013-02-19 04:55:00,63.4,54.2,29.90,NW,315,0.9,4.3,72,0.00,,,0.00,WUHU216HW,2013-02-19 01:55:00,
2013-02-19 05:00:00,63.2,54.0,29.90,North,0,2.2,3.1,72,0.00,,,0.00,WUHU216HW,2013-02-19 02:00:00,
2013-02-19 05:05:00,63.4,54.2,29.90,NNW,338,1.1,3.4,72,0.00,,,0.00,WUHU216HW,2013-02-19 02:05:00,
2013-02-19 05:10:00,63.4,54.2,29.90,NNW,338,1.8,3.4,72,0.00,,,0.00,WUHU216HW,2013-02-19 02:10:00,
2013-02-19 05:15:00,63.4,54.2,29.91,North,0,2.5,4.5,72,0.00,,,0.00,WUHU216HW,2013-02-19 02:15:00,
2013-02-19 05:20:00,63.4,54.2,29.91,NNW,338,2.2,4.5,72,0.00,,,0.00,WUHU216HW,2013-02-19 02:20:00,
2013-02-19 05:25:00,63.4,54.2,29.91,NW,315,2.9,3.4,72,0.00,,,0.00,WUHU216HW,2013-02-19 02:25:00,
2013-02-19 05:30:00,63.2,54.4,29.91,WNW,293,2.9,4.0,73,0.00,,,0.00,WUHU216HW,2013-02-19 02:30:00,
2013-02-19 05:35:00,63.2,54.0,29.91,NW,315,1.3,4.0,72,0.00,,,0.00,WUHU216HW,2013-02-19 02:35:00,
2013-02-19 05:40:00,63.2,54.0,29.91,NW,315,3.1,3.6,72,0.00,,,0.00,WUHU216HW,2013-02-19 02:40:00,
2013-02-19 05:45:00,63.0,53.8,29.91,NW,315,2.0,3.6,72,0.00,,,0.00,WUHU216HW,2013-02-19 02:45:00,
2013-02-19 05:50:00,63.0,53.8,29.92,NW,315,1.8,2.9,72,0.00,,,0.00,WUHU216HW,2013-02-19 02:50:00,
2013-02-19 05:55:00,62.8,54.0,29.92,NW,315,1.1,2.9,73,0.00,,,0.00,WUHU216HW,2013-02-19 02:55:00,
2013-02-19 06:00:00,62.6,53.8,29.92,NW,315,1.6,3.1,73,0.00,,,0.00,WUHU216HW,2013-02-19 03:00:00,
2013-02-19 06:05:00,62.5,53.6,29.93,NW,315,3.4,4.0,73,0.00,,,0.00,WUHU216HW,2013-02-19 03:05:00,
2013-02-19 06:10:00,62.3,53.5,29.93,WNW,293,4.5,4.5,73,0.00,,,0.00,WUHU216HW,2013-02-19 03:10:00,
2013-02-19 06:15:00,62.3,53.5,29.93,NW,315,4.0,4.5,73,0.00,,,0.00,WUHU216HW,2013-02-19 03:15:00,
2013-02-19 06:20:00,62.1,53.4,29.93,NW,315,2.2,4.5,73,0.00,,,0.00,WUHU216HW,2013-02-19 03:20:00,
2013-02-19 06:25:00,62.3,53.5,29.94,WNW,293,2.9,4.5,73,0.00,,,0.00,WUHU216HW,2013-02-19 03:25:00,
2013-02-19 06:30:00,62.3,53.5,29.94,WNW,293,2.2,3.6,73,0.00,,,0.00,WUHU216HW,2013-02-19 03:30:00,
2013-02-19 06:35:00,62.5,53.6,29.94,WNW,293,2.5,4.0,73,0.00,,,0.00,WUHU216HW,2013-02-19 03:35:00,
2013-02-19 06:40:00,62.5,53.3,29.94,NW,315,2.2,4.0,72,0.00,,,0.00,WUHU216HW,2013-02-19 03:40:00,
2013-02-19 06:45:00,62.6,53.5,29.94,NNW,338,1.6,3.4,72,0.00,,,0.00,WUHU216HW,2013-02-19 03:45:00,
2013-02-19 06:50:00,62.8,53.6,29.94,NW,315,3.1,3.4,72,0.00,,,0.00,WUHU216HW,2013-02-19 03:50:00,
2013-02-19 06:55:00,63.0,53.5,29.94,NW,315,4.3,4.3,71,0.00,,,0.00,WUHU216HW,2013-02-19 03:55:00,
2013-02-19 07:00:00,63.4,53.5,29.94,NNW,338,4.7,4.7,70,0.00,,,0.00,WUHU216HW,2013-02-19 04:00:00,
2013-02-19 07:05:00,63.7,53.8,29.95,NNW,338,4.0,5.6,70,0.00,,,0.00,WUHU216HW,2013-02-19 04:05:00,
2013-02-19 07:10:00,63.9,53.6,29.95,NW,315,3.1,5.6,69,0.00,,,0.00,WUHU216HW,2013-02-19 04:10:00,
2013-02-19 07:15:00,64.1,53.3,29.95,NW,315,4.9,5.1,68,0.00,,,0.00,WUHU216HW,2013-02-19 04:15:00,
2013-02-19 07:20:00,64.4,53.3,29.95,NNW,338,4.7,7.4,67,0.00,,,0.00,WUHU216HW,2013-02-19 04:20:00,
2013-02-19 07:25:00,64.8,53.6,29.95,West,270,3.8,7.4,67,0.00,,,0.00,WUHU216HW,2013-02-19 04:25:00,
2013-02-19 07:30:00,65.2,53.5,29.95,NNW,338,2.5,6.0,66,0.00,,,0.00,WUHU216HW,2013-02-19 04:30:00,
2013-02-19 07:35:00,65.3,53.6,29.95,NW,315,3.4,4.7,66,0.00,,,0.00,WUHU216HW,2013-02-19 04:35:00,
2013-02-19 07:40:00,65.7,53.6,29.95,NW,315,6.5,6.7,65,0.00,,,0.00,WUHU216HW,2013-02-19 04:40:00,
2013-02-19 07:46:00,66.1,53.5,29.95,NNW,338,3.6,6.7,64,0.00,,,0.00,WUHU216HW,2013-02-19 04:46:00,
2013-02-19 07:51:00,66.2,53.3,29.95,North,0,4.7,6.9,63,0.00,,,0.00,WUHU216HW,2013-02-19 04:51:00,
2013-02-19 07:56:00,66.6,53.2,29.95,North,0,6.3,7.2,62,0.00,,,0.00,WUHU216HW,2013-02-19 04:56:00,
2013-02-19 08:00:00,66.6,53.2,29.95,North,0,4.0,7.2,62,0.00,,,0.00,WUHU216HW,2013-02-19 05:00:00,
2013-02-19 08:01:00,66.6,53.2,29.95,North,0,3.4,7.2,62,0.00,,,0.00,WUHU216HW,2013-02-19 05:01:00,
2013-02-19 08:06:00,66.8,53.4,29.96,North,0,3.6,9.4,62,0.00,,,0.00,WUHU216HW,2013-02-19 05:06:00,
2013-02-19 08:11:00,67.0,53.6,29.96,NW,315,7.6,9.4,62,0.00,,,0.00,WUHU216HW,2013-02-19 05:11:00,
2013-02-19 08:16:00,67.1,53.6,29.96,North,0,3.6,8.9,62,0.00,,,0.00,WUHU216HW,2013-02-19 05:16:00,
2013-02-19 08:21:00,67.5,54.0,29.96,NE,45,5.4,8.9,62,0.00,,,0.00,WUHU216HW,2013-02-19 05:21:00,
2013-02-19 08:26:00,67.7,54.2,29.96,NE,45,4.5,8.5,62,0.00,,,0.00,WUHU216HW,2013-02-19 05:26:00,
2013-02-19 08:31:00,67.7,54.2,29.96,NNW,338,4.5,9.2,62,0.00,,,0.00,WUHU216HW,2013-02-19 05:31:00,
2013-02-19 08:36:00,67.9,54.4,29.97,North,0,4.9,9.4,62,0.00,,,0.00,WUHU216HW,2013-02-19 05:36:00,
2013-02-19 08:41:00,68.0,54.6,29.97,NW,315,9.2,9.4,62,0.00,,,0.00,WUHU216HW,2013-02-19 05:41:00,
2013-02-19 08:46:00,68.2,54.3,29.97,NW,315,4.5,9.2,61,0.00,,,0.00,WUHU216HW,2013-02-19 05:46:00,
2013-02-19 08:51:00,68.6,54.6,29.97,NNW,338,6.0,9.2,61,0.00,,,0.00,WUHU216HW,2013-02-19 05:51:00,
2013-02-19 08:56:00,68.9,54.5,29.97,NNW,338,4.7,7.6,60,0.00,,,0.00,WUHU216HW,2013-02-19 05:56:00,
2013-02-19 09:01:00,69.1,54.2,29.97,North,0,4.5,7.6,59,0.00,,,0.00,WUHU216HW,2013-02-19 06:01:00,
2013-02-19 09:06:00,69.3,54.4,29.97,North,0,7.4,9.6,59,0.00,,,0.00,WUHU216HW,2013-02-19 06:06:00,
2013-02-19 09:11:00,69.5,54.1,29.97,NNE,23,6.7,11.6,58,0.00,,,0.00,WUHU216HW,2013-02-19 06:11:00,
2013-02-19 09:16:00,69.5,54.1,29.97,North,0,2.5,11.6,58,0.00,,,0.00,WUHU216HW,2013-02-19 06:16:00,
2013-02-19 09:21:00,69.7,54.3,29.97,North,0,4.0,9.8,58,0.00,,,0.00,WUHU216HW,2013-02-19 06:21:00,
2013-02-19 09:26:00,69.7,53.7,29.97,NNW,338,4.9,9.8,57,0.00,,,0.00,WUHU216HW,2013-02-19 06:26:00,
2013-02-19 09:31:00,69.8,53.9,29.97,North,0,5.4,9.4,57,0.00,,,0.00,WUHU216HW,2013-02-19 06:31:00,
2013-02-19 09:36:00,69.8,53.9,29.97,NNW,338,4.7,9.4,57,0.00,,,0.00,WUHU216HW,2013-02-19 06:36:00,
2013-02-19 09:41:00,70.0,54.1,29.97,NNW,338,5.4,8.1,57,0.00,,,0.00,WUHU216HW,2013-02-19 06:41:00,
2013-02-19 09:46:00,70.2,54.3,29.97,NW,315,5.4,7.2,57,0.00,,,0.00,WUHU216HW,2013-02-19 06:46:00,
2013-02-19 09:51:00,70.6,54.5,29.97,North,0,8.1,9.8,57,0.00,,,0.00,WUHU216HW,2013-02-19 06:51:00,
2013-02-19 09:56:00,70.7,55.3,29.96,North,0,4.5,9.8,58,0.00,,,0.00,WUHU216HW,2013-02-19 06:56:00,
2013-02-19 10:01:00,70.9,54.9,29.96,North,0,3.1,9.8,57,0.00,,,0.00,WUHU216HW,2013-02-19 07:01:00,
2013-02-19 10:06:00,71.3,55.3,29.96,North,0,2.5,9.8,57,0.00,,,0.00,WUHU216HW,2013-02-19 07:06:00,
2013-02-19 10:11:00,71.6,55.5,29.96,NNW,338,4.0,8.5,57,0.00,,,0.00,WUHU216HW,2013-02-19 07:11:00,
2013-02-19 10:16:00,71.6,55.5,29.96,NNW,338,3.4,8.5,57,0.00,,,0.00,WUHU216HW,2013-02-19 07:16:00,
2013-02-19 10:21:00,71.1,55.5,29.96,North,0,6.0,6.3,58,0.00,,,0.00,WUHU216HW,2013-02-19 07:21:00,
2013-02-19 10:26:00,71.5,55.9,29.96,North,0,7.2,9.2,58,0.00,,,0.00,WUHU216HW,2013-02-19 07:26:00,
2013-02-19 10:31:00,71.6,56.1,29.96,NW,315,3.4,9.2,58,0.00,,,0.00,WUHU216HW,2013-02-19 07:31:00,
2013-02-19 10:36:00,71.5,56.4,29.96,NNW,338,2.5,9.2,59,0.00,,,0.00,WUHU216HW,2013-02-19 07:36:00,
2013-02-19 10:41:00,71.8,56.3,29.96,North,0,4.3,9.2,58,0.00,,,0.00,WUHU216HW,2013-02-19 07:41:00,
2013-02-19 10:46:00,71.8,56.3,29.96,NE,45,2.2,9.4,58,0.00,,,0.00,WUHU216HW,2013-02-19 07:46:00,
2013-02-19 10:51:00,72.2,56.5,29.96,NNE,23,3.4,9.4,58,0.00,,,0.00,WUHU216HW,2013-02-19 07:51:00,
2013-02-19 10:56:00,72.4,56.2,29.95,NNE,23,10.5,10.5,57,0.00,,,0.00,WUHU216HW,2013-02-19 07:56:00,
2013-02-19 11:01:00,72.4,56.2,29.95,ENE,68,3.4,11.4,57,0.00,,,0.00,WUHU216HW,2013-02-19 08:01:00,
2013-02-19 11:06:00,72.7,56.0,29.95,NNE,23,8.9,11.4,56,0.00,,,0.00,WUHU216HW,2013-02-19 08:06:00,
2013-02-19 11:11:00,72.7,56.0,29.95,ENE,68,1.8,9.2,56,0.00,,,0.00,WUHU216HW,2013-02-19 08:11:00,
2013-02-19 11:16:00,72.5,55.9,29.94,NE,45,7.8,10.7,56,0.00,,,0.00,WUHU216HW,2013-02-19 08:16:00,
2013-02-19 11:21:00,72.9,56.2,29.94,NNW,338,2.9,10.7,56,0.00,,,0.00,WUHU216HW,2013-02-19 08:21:00,
2013-02-19 11:26:00,72.9,56.2,29.94,ENE,68,4.0,11.0,56,0.00,,,0.00,WUHU216HW,2013-02-19 08:26:00,
2013-02-19 11:31:00,73.3,56.5,29.94,NE,45,2.9,11.0,56,0.00,,,0.00,WUHU216HW,2013-02-19 08:31:00,
2013-02-19 11:36:00,73.3,56.0,29.93,ENE,68,6.3,9.2,55,0.00,,,0.00,WUHU216HW,2013-02-19 08:36:00,
2013-02-19 11:41:00,73.4,56.7,29.93,ENE,68,10.3,10.3,56,0.00,,,0.00,WUHU216HW,2013-02-19 08:41:00,
2013-02-19 11:46:00,73.3,57.0,29.93,ENE,68,7.2,10.3,57,0.00,,,0.00,WUHU216HW,2013-02-19 08:46:00,
2013-02-19 11:51:00,73.1,55.8,29.93,North,0,4.7,10.3,55,0.00,,,0.00,WUHU216HW,2013-02-19 08:51:00,
2013-02-19 11:56:00,73.3,56.5,29.92,East,90,3.6,9.2,56,0.00,,,0.00,WUHU216HW,2013-02-19 08:56:00,
2013-02-19 12:01:00,73.4,56.2,29.92,East,90,5.1,8.5,55,0.00,,,0.00,WUHU216HW,2013-02-19 09:01:00,
2013-02-19 12:06:00,73.4,56.7,29.92,East,90,6.9,8.5,56,0.00,,,0.00,WUHU216HW,2013-02-19 09:06:00,
2013-02-19 12:11:00,73.4,57.2,29.91,ESE,113,5.4,8.5,57,0.00,,,0.00,WUHU216HW,2013-02-19 09:11:00,
2013-02-19 12:16:00,73.4,57.2,29.91,ESE,113,2.0,8.5,57,0.00,,,0.00,WUHU216HW,2013-02-19 09:16:00,
2013-02-19 12:21:00,73.6,57.9,29.91,NE,45,2.5,8.5,58,0.00,,,0.00,WUHU216HW,2013-02-19 09:21:00,
2013-02-19 12:26:00,74.0,58.2,29.91,SE,135,7.6,8.1,58,0.00,,,0.00,WUHU216HW,2013-02-19 09:26:00,
2013-02-19 12:31:00,74.0,57.7,29.90,ENE,68,7.6,8.1,57,0.00,,,0.00,WUHU216HW,2013-02-19 09:31:00,
2013-02-19 12:36:00,74.2,57.9,29.90,North,0,3.6,7.8,57,0.00,,,0.00,WUHU216HW,2013-02-19 09:36:00,
2013-02-19 12:41:00,74.3,58.1,29.90,ESE,113,6.0,7.6,57,0.00,,,0.00,WUHU216HW,2013-02-19 09:41:00,
2013-02-19 12:46:00,74.3,58.1,29.89,SE,135,6.5,6.5,57,0.00,,,0.00,WUHU216HW,2013-02-19 09:46:00,
2013-02-19 12:51:00,74.3,58.6,29.89,North,0,5.1,7.8,58,0.00,,,0.00,WUHU216HW,2013-02-19 09:51:00,
2013-02-19 12:56:00,74.5,58.2,29.89,ENE,68,6.3,7.8,57,0.00,,,0.00,WUHU216HW,2013-02-19 09:56:00,
2013-02-19 13:01:00,74.2,57.9,29.89,ESE,113,4.7,9.6,57,0.00,,,0.00,WUHU216HW,2013-02-19 10:01:00,
2013-02-19 13:06:00,74.3,58.6,29.89,NE,45,7.8,9.6,58,0.00,,,0.00,WUHU216HW,2013-02-19 10:06:00,
2013-02-19 13:11:00,74.2,58.4,29.88,SE,135,2.9,8.5,58,0.00,,,0.00,WUHU216HW,2013-02-19 10:11:00,
2013-02-19 13:16:00,74.3,58.6,29.88,East,90,5.4,8.5,58,0.00,,,0.00,WUHU216HW,2013-02-19 10:16:00,
2013-02-19 13:21:00,74.2,58.9,29.88,ESE,113,7.6,10.3,59,0.00,,,0.00,WUHU216HW,2013-02-19 10:21:00,
2013-02-19 13:26:00,74.0,58.2,29.88,ENE,68,6.9,10.3,58,0.00,,,0.00,WUHU216HW,2013-02-19 10:26:00,
2013-02-19 13:31:00,74.0,58.7,29.88,East,90,7.4,8.9,59,0.00,,,0.00,WUHU216HW,2013-02-19 10:31:00,
2013-02-19 13:36:00,74.2,59.4,29.88,ENE,68,5.6,9.2,60,0.00,,,0.00,WUHU216HW,2013-02-19 10:36:00,
2013-02-19 13:41:00,74.0,59.2,29.88,ESE,113,6.9,9.2,60,0.00,,,0.00,WUHU216HW,2013-02-19 10:41:00,
2013-02-19 13:46:00,74.0,59.7,29.87,ESE,113,4.7,8.5,61,0.00,,,0.00,WUHU216HW,2013-02-19 10:46:00,
2013-02-19 13:51:00,74.0,59.7,29.87,SSE,158,5.4,8.5,61,0.00,,,0.00,WUHU216HW,2013-02-19 10:51:00,
2013-02-19 13:56:00,73.8,59.0,29.87,ESE,113,6.9,8.9,60,0.00,,,0.00,WUHU216HW,2013-02-19 10:56:00,
2013-02-19 14:01:00,73.6,59.8,29.87,East,90,6.7,8.9,62,0.00,,,0.00,WUHU216HW,2013-02-19 11:01:00,
2013-02-19 14:06:00,73.4,59.6,29.86,ENE,68,6.3,9.2,62,0.00,,,0.00,WUHU216HW,2013-02-19 11:06:00,
2013-02-19 14:11:00,73.6,60.2,29.86,ESE,113,7.4,9.4,63,0.00,,,0.00,WUHU216HW,2013-02-19 11:11:00,
2013-02-19 14:16:00,73.6,60.2,29.86,East,90,10.3,11.2,63,0.00,,,0.00,WUHU216HW,2013-02-19 11:16:00,
2013-02-19 14:21:00,73.8,60.9,29.86,ENE,68,7.6,11.4,64,0.00,,,0.00,WUHU216HW,2013-02-19 11:21:00,
2013-02-19 14:26:00,73.4,60.5,29.86,East,90,10.5,11.4,64,0.00,,,0.00,WUHU216HW,2013-02-19 11:26:00,
2013-02-19 14:31:00,73.6,60.7,29.86,ESE,113,6.3,10.5,64,0.00,,,0.00,WUHU216HW,2013-02-19 11:31:00,
2013-02-19 14:36:00,73.8,60.9,29.86,ESE,113,7.6,10.5,64,0.00,,,0.00,WUHU216HW,2013-02-19 11:36:00,
2013-02-19 14:41:00,73.8,60.9,29.86,East,90,4.0,9.6,64,0.00,,,0.00,WUHU216HW,2013-02-19 11:41:00,
2013-02-19 14:46:00,73.8,60.9,29.86,East,90,8.1,9.2,64,0.00,,,0.00,WUHU216HW,2013-02-19 11:46:00,
2013-02-19 14:51:00,73.1,60.6,29.86,ENE,68,6.3,8.5,65,0.00,,,0.00,WUHU216HW,2013-02-19 11:51:00,
2013-02-19 14:57:00,72.7,60.7,29.86,ENE,68,5.6,8.5,66,0.00,,,0.00,WUHU216HW,2013-02-19 11:57:00,
2013-02-19 15:02:00,72.5,59.7,29.86,East,90,6.0,9.8,64,0.00,,,0.00,WUHU216HW,2013-02-19 12:02:00,
2013-02-19 15:07:00,72.4,60.0,29.86,ENE,68,7.2,9.8,65,0.00,,,0.00,WUHU216HW,2013-02-19 12:07:00,
2013-02-19 15:12:00,72.2,60.2,29.86,ESE,113,6.5,9.6,66,0.00,,,0.00,WUHU216HW,2013-02-19 12:12:00,
2013-02-19 15:17:00,72.2,59.8,29.87,ENE,68,6.3,9.6,65,0.00,,,0.00,WUHU216HW,2013-02-19 12:17:00,
2013-02-19 15:22:00,72.0,60.0,29.87,East,90,6.3,8.7,66,0.00,,,0.00,WUHU216HW,2013-02-19 12:22:00,
2013-02-19 15:27:00,71.8,59.9,29.87,East,90,7.4,9.8,66,0.00,,,0.00,WUHU216HW,2013-02-19 12:27:00,
2013-02-19 15:32:00,72.0,60.0,29.87,ENE,68,7.6,9.8,66,0.00,,,0.00,WUHU216HW,2013-02-19 12:32:00,
2013-02-19 15:37:00,72.0,60.0,29.87,East,90,7.8,9.2,66,0.00,,,0.00,WUHU216HW,2013-02-19 12:37:00,
2013-02-19 15:42:00,72.0,60.4,29.87,East,90,3.6,9.2,67,0.00,,,0.00,WUHU216HW,2013-02-19 12:42:00,
2013-02-19 15:47:00,71.8,60.3,29.87,ENE,68,5.4,8.1,67,0.00,,,0.00,WUHU216HW,2013-02-19 12:47:00,
2013-02-19 15:52:00,71.6,60.5,29.87,NE,45,4.0,7.6,68,0.00,,,0.00,WUHU216HW,2013-02-19 12:52:00,
2013-02-19 15:57:00,71.6,60.1,29.87,ENE,68,8.1,8.3,67,0.00,,,0.00,WUHU216HW,2013-02-19 12:57:00,
2013-02-19 16:02:00,71.6,60.5,29.87,East,90,9.6,9.8,68,0.00,,,0.00,WUHU216HW,2013-02-19 13:02:00,
2013-02-19 16:07:00,71.5,60.3,29.87,ENE,68,6.3,9.8,68,0.00,,,0.00,WUHU216HW,2013-02-19 13:07:00,
2013-02-19 16:12:00,71.3,60.1,29.87,ENE,68,5.6,9.4,68,0.00,,,0.00,WUHU216HW,2013-02-19 13:12:00,
2013-02-19 16:17:00,71.3,60.1,29.87,ENE,68,8.1,8.7,68,0.00,,,0.00,WUHU216HW,2013-02-19 13:17:00,
2013-02-19 16:22:00,71.1,60.4,29.87,East,90,4.7,8.7,69,0.00,,,0.00,WUHU216HW,2013-02-19 13:22:00,
2013-02-19 16:27:00,71.1,60.4,29.86,ESE,113,1.8,8.1,69,0.00,,,0.00,WUHU216HW,2013-02-19 13:27:00,
2013-02-19 16:32:00,71.1,60.4,29.87,ENE,68,4.9,7.4,69,0.00,,,0.00,WUHU216HW,2013-02-19 13:32:00,
2013-02-19 16:37:00,70.9,60.7,29.87,ESE,113,4.7,7.4,70,0.00,,,0.00,WUHU216HW,2013-02-19 13:37:00,
2013-02-19 16:42:00,70.9,60.7,29.88,ESE,113,5.4,7.6,70,0.00,,,0.00,WUHU216HW,2013-02-19 13:42:00,
2013-02-19 16:47:00,70.9,60.7,29.87,East,90,2.5,7.6,70,0.00,,,0.00,WUHU216HW,2013-02-19 13:47:00,
2013-02-19 16:52:00,70.9,60.7,29.87,ENE,68,7.8,8.3,70,0.00,,,0.00,WUHU216HW,2013-02-19 13:52:00,
2013-02-19 16:57:00,70.7,60.5,29.87,NE,45,6.9,8.3,70,0.00,,,0.00,WUHU216HW,2013-02-19 13:57:00,
2013-02-19 17:02:00,70.6,60.3,29.88,ENE,68,6.9,7.6,70,0.00,,,0.00,WUHU216HW,2013-02-19 14:02:00,
2013-02-19 17:07:00,70.6,60.3,29.88,ESE,113,5.1,6.9,70,0.00,,,0.00,WUHU216HW,2013-02-19 14:07:00,
2013-02-19 17:12:00,70.6,60.3,29.88,ESE,113,5.8,7.6,70,0.00,,,0.00,WUHU216HW,2013-02-19 14:12:00,
2013-02-19 17:17:00,70.4,60.1,29.88,East,90,5.1,7.6,70,0.00,,,0.00,WUHU216HW,2013-02-19 14:17:00,
2013-02-19 17:22:00,70.4,60.1,29.87,East,90,6.0,6.5,70,0.00,,,0.00,WUHU216HW,2013-02-19 14:22:00,
2013-02-19 17:27:00,70.2,59.9,29.87,East,90,7.4,7.8,70,0.00,,,0.00,WUHU216HW,2013-02-19 14:27:00,
2013-02-19 17:32:00,70.2,59.9,29.88,East,90,6.5,7.8,70,0.00,,,0.00,WUHU216HW,2013-02-19 14:32:00,
2013-02-19 17:37:00,70.0,59.8,29.87,ESE,113,4.7,7.6,70,0.00,,,0.00,WUHU216HW,2013-02-19 14:37:00,
2013-02-19 17:42:00,69.8,59.6,29.88,ENE,68,4.9,7.6,70,0.00,,,0.00,WUHU216HW,2013-02-19 14:42:00,
2013-02-19 17:47:00,69.8,59.6,29.88,ENE,68,4.0,6.9,70,0.00,,,0.00,WUHU216HW,2013-02-19 14:47:00,
2013-02-19 17:52:00,69.8,59.6,29.88,ESE,113,2.9,6.9,70,0.00,,,0.00,WUHU216HW,2013-02-19 14:52:00,
2013-02-19 17:57:00,69.8,59.9,29.88,East,90,5.1,6.3,71,0.00,,,0.00,WUHU216HW,2013-02-19 14:57:00,
2013-02-19 18:02:00,69.7,59.8,29.88,ESE,113,3.6,6.3,71,0.00,,,0.00,WUHU216HW,2013-02-19 15:02:00,
2013-02-19 18:07:00,69.7,60.2,29.88,East,90,4.0,5.6,72,0.00,,,0.00,WUHU216HW,2013-02-19 15:07:00,
2013-02-19 18:12:00,69.5,60.0,29.89,ESE,113,4.3,4.9,72,0.00,,,0.00,WUHU216HW,2013-02-19 15:12:00,
2013-02-19 18:17:00,69.5,60.0,29.88,ESE,113,2.5,4.7,72,0.00,,,0.00,WUHU216HW,2013-02-19 15:17:00,
2013-02-19 18:22:00,69.5,60.0,29.89,ENE,68,2.0,4.5,72,0.00,,,0.00,WUHU216HW,2013-02-19 15:22:00,
2013-02-19 18:27:00,69.5,60.0,29.89,NE,45,3.1,4.5,72,0.00,,,0.00,WUHU216HW,2013-02-19 15:27:00,
2013-02-19 18:32:00,69.3,59.9,29.89,ENE,68,3.8,4.9,72,0.00,,,0.00,WUHU216HW,2013-02-19 15:32:00,
2013-02-19 18:37:00,69.5,60.0,29.89,ENE,68,3.6,4.9,72,0.00,,,0.00,WUHU216HW,2013-02-19 15:37:00,
2013-02-19 18:42:00,69.5,60.0,29.89,ESE,113,2.5,4.7,72,0.00,,,0.00,WUHU216HW,2013-02-19 15:42:00,
2013-02-19 18:47:00,69.5,60.0,29.89,ENE,68,3.4,4.7,72,0.00,,,0.00,WUHU216HW,2013-02-19 15:47:00,
2013-02-19 18:52:00,69.3,59.9,29.89,East,90,2.5,4.0,72,0.00,,,0.00,WUHU216HW,2013-02-19 15:52:00,
2013-02-19 18:57:00,69.3,59.9,29.89,ENE,68,3.6,4.5,72,0.00,,,0.00,WUHU216HW,2013-02-19 15:57:00,
2013-02-19 19:02:00,69.3,59.9,29.89,ENE,68,3.6,4.5,72,0.00,,,0.00,WUHU216HW,2013-02-19 16:02:00,
2013-02-19 19:07:00,69.1,59.7,29.89,ENE,68,2.2,4.0,72,0.00,,,0.00,WUHU216HW,2013-02-19 16:07:00,
2013-02-19 19:12:00,69.1,59.7,29.89,ESE,113,2.5,3.6,72,0.00,,,0.00,WUHU216HW,2013-02-19 16:12:00,
2013-02-19 19:17:00,69.1,59.7,29.89,ENE,68,2.7,3.4,72,0.00,,,0.00,WUHU216HW,2013-02-19 16:17:00,
2013-02-19 19:22:00,69.1,60.0,29.90,East,90,1.8,3.8,73,0.00,,,0.00,WUHU216HW,2013-02-19 16:22:00,
2013-02-19 19:27:00,69.1,60.0,29.90,SE,135,1.8,6.3,73,0.00,,,0.00,WUHU216HW,2013-02-19 16:27:00,
2013-02-19 19:32:00,69.1,59.7,29.91,ENE,68,1.3,6.3,72,0.00,,,0.00,WUHU216HW,2013-02-19 16:32:00,
2013-02-19 19:37:00,69.1,59.7,29.91,North,0,4.7,4.7,72,0.00,,,0.00,WUHU216HW,2013-02-19 16:37:00,
2013-02-19 19:42:00,69.1,59.3,29.91,North,0,0.9,4.7,71,0.00,,,0.00,WUHU216HW,2013-02-19 16:42:00,
2013-02-19 19:47:00,69.1,59.7,29.91,North,0,4.0,5.4,72,0.00,,,0.00,WUHU216HW,2013-02-19 16:47:00,
2013-02-19 19:52:00,69.1,59.7,29.91,North,0,2.7,5.4,72,0.00,,,0.00,WUHU216HW,2013-02-19 16:52:00,
2013-02-19 19:57:00,69.1,60.0,29.91,NNE,23,3.1,5.4,73,0.00,,,0.00,WUHU216HW,2013-02-19 16:57:00,
2013-02-19 20:02:00,68.9,60.0,29.92,NNW,338,2.0,5.4,73,0.00,,,0.00,WUHU216HW,2013-02-19 17:02:00,
2013-02-19 20:07:00,68.9,60.0,29.91,NE,45,1.1,5.4,73,0.00,,,0.00,WUHU216HW,2013-02-19 17:07:00,
2013-02-19 20:12:00,68.8,59.8,29.92,NNW,338,1.6,4.7,73,0.00,,,0.00,WUHU216HW,2013-02-19 17:12:00,
2013-02-19 20:17:00,68.8,59.8,29.91,North,0,4.0,4.0,73,0.00,,,0.00,WUHU216HW,2013-02-19 17:17:00,
2013-02-19 20:22:00,68.8,60.1,29.91,North,0,2.9,4.7,74,0.00,,,0.00,WUHU216HW,2013-02-19 17:22:00,
2013-02-19 20:27:00,68.8,60.1,29.91,North,0,3.1,5.6,74,0.00,,,0.00,WUHU216HW,2013-02-19 17:27:00,
2013-02-19 20:32:00,68.8,60.1,29.91,North,0,4.3,5.6,74,0.00,,,0.00,WUHU216HW,2013-02-19 17:32:00,
2013-02-19 20:37:00,68.6,59.9,29.91,NNE,23,4.5,5.4,74,0.00,,,0.00,WUHU216HW,2013-02-19 17:37:00,
2013-02-19 20:42:00,68.8,60.1,29.91,NNE,23,3.4,5.4,74,0.00,,,0.00,WUHU216HW,2013-02-19 17:42:00,
2013-02-19 20:47:00,68.8,60.1,29.91,NE,45,4.7,4.9,74,0.00,,,0.00,WUHU216HW,2013-02-19 17:47:00,
2013-02-19 20:52:00,68.8,60.1,29.91,North,0,4.9,5.6,74,0.00,,,0.00,WUHU216HW,2013-02-19 17:52:00,
2013-02-19 20:57:00,68.8,60.1,29.91,North,0,2.5,5.6,74,0.00,,,0.00,WUHU216HW,2013-02-19 17:57:00,
2013-02-19 21:02:00,68.6,59.9,29.91,NNE,23,3.1,4.9,74,0.00,,,0.00,WUHU216HW,2013-02-19 18:02:00,
2013-02-19 21:07:00,68.6,59.9,29.91,North,0,2.0,5.1,74,0.00,,,0.00,WUHU216HW,2013-02-19 18:07:00,
2013-02-19 21:12:00,68.6,59.9,29.91,NNE,23,1.8,5.1,74,0.00,,,0.00,WUHU216HW,2013-02-19 18:12:00,
2013-02-19 21:17:00,68.6,59.9,29.91,North,0,2.2,4.3,74,0.00,,,0.00,WUHU216HW,2013-02-19 18:17:00,
2013-02-19 21:22:00,68.4,59.8,29.91,NNE,23,1.1,2.9,74,0.00,,,0.00,WUHU216HW,2013-02-19 18:22:00,
2013-02-19 21:27:00,68.4,59.8,29.91,North,0,3.4,4.3,74,0.00,,,0.00,WUHU216HW,2013-02-19 18:27:00,
2013-02-19 21:32:00,68.4,59.8,29.91,North,0,2.2,4.3,74,0.00,,,0.00,WUHU216HW,2013-02-19 18:32:00,
2013-02-19 21:37:00,68.4,59.8,29.90,ENE,68,1.1,4.0,74,0.00,,,0.00,WUHU216HW,2013-02-19 18:37:00,
2013-02-19 21:42:00,68.4,59.8,29.91,NE,45,1.1,2.7,74,0.00,,,0.00,WUHU216HW,2013-02-19 18:42:00,
2013-02-19 21:47:00,68.4,59.8,29.91,ENE,68,0.7,2.0,74,0.00,,,0.00,WUHU216HW,2013-02-19 18:47:00,
2013-02-19 21:52:00,68.4,59.8,29.91,ENE,68,0.4,1.8,74,0.00,,,0.00,WUHU216HW,2013-02-19 18:52:00,
2013-02-19 21:57:00,68.4,59.8,29.91,ENE,68,0.0,1.6,74,0.00,,,0.00,WUHU216HW,2013-02-19 18:57:00,
2013-02-19 22:02:00,68.2,59.7,29.91,North,0,1.1,2.5,74,0.00,,,0.00,WUHU216HW,2013-02-19 19:02:00,
2013-02-19 22:07:00,68.2,59.7,29.91,North,0,1.8,3.1,74,0.00,,,0.00,WUHU216HW,2013-02-19 19:07:00,
2013-02-19 22:12:00,68.2,60.0,29.91,North,0,2.0,3.1,75,0.00,,,0.00,WUHU216HW,2013-02-19 19:12:00,
2013-02-19 22:17:00,68.0,59.9,29.91,North,0,1.8,3.4,75,0.00,,,0.00,WUHU216HW,2013-02-19 19:17:00,
2013-02-19 22:22:00,68.0,60.2,29.91,NW,315,1.8,3.4,76,0.00,,,0.00,WUHU216HW,2013-02-19 19:22:00,
2013-02-19 22:27:00,67.7,59.9,29.91,NW,315,3.4,3.4,76,0.00,,,0.00,WUHU216HW,2013-02-19 19:27:00,
2013-02-19 22:32:00,67.5,59.7,29.91,NW,315,2.9,4.0,76,0.00,,,0.00,WUHU216HW,2013-02-19 19:32:00,
2013-02-19 22:37:00,67.3,59.5,29.91,West,270,1.8,4.0,76,0.00,,,0.00,WUHU216HW,2013-02-19 19:37:00,
2013-02-19 22:42:00,67.1,59.3,29.91,West,270,1.3,2.9,76,0.00,,,0.00,WUHU216HW,2013-02-19 19:42:00,
2013-02-19 22:47:00,67.0,59.1,29.91,WNW,293,1.3,2.5,76,0.00,,,0.00,WUHU216HW,2013-02-19 19:47:00,
2013-02-19 22:52:00,67.0,59.1,29.90,WNW,293,1.1,1.8,76,0.00,,,0.00,WUHU216HW,2013-02-19 19:52:00,
2013-02-19 22:57:00,67.0,59.1,29.90,WNW,293,1.1,1.8,76,0.00,,,0.00,WUHU216HW,2013-02-19 19:57:00,
2013-02-19 23:02:00,67.0,59.1,29.90,NW,315,1.3,2.2,76,0.00,,,0.00,WUHU216HW,2013-02-19 20:02:00,
2013-02-19 23:07:00,67.0,59.1,29.90,NW,315,1.1,2.2,76,0.00,,,0.00,WUHU216HW,2013-02-19 20:07:00,
2013-02-19 23:12:00,67.0,59.1,29.90,NNW,338,1.8,2.5,76,0.00,,,0.00,WUHU216HW,2013-02-19 20:12:00,
2013-02-19 23:17:00,67.1,59.3,29.90,NNW,338,2.5,2.7,76,0.00,,,0.00,WUHU216HW,2013-02-19 20:17:00,
2013-02-19 23:22:00,67.1,59.7,29.90,NNW,338,2.9,2.9,77,0.00,,,0.00,WUHU216HW,2013-02-19 20:22:00,
2013-02-19 23:27:00,67.1,59.7,29.91,NNW,338,2.2,3.1,77,0.00,,,0.00,WUHU216HW,2013-02-19 20:27:00,
2013-02-19 23:32:00,67.1,59.7,29.91,North,0,1.6,3.1,77,0.00,,,0.00,WUHU216HW,2013-02-19 20:32:00,
2013-02-19 23:37:00,67.3,59.9,29.90,NNW,338,1.6,2.5,77,0.00,,,0.00,WUHU216HW,2013-02-19 20:37:00,
2013-02-19 23:42:00,67.1,59.3,29.90,NNW,338,1.6,3.4,76,0.00,,,0.00,WUHU216HW,2013-02-19 20:42:00,
2013-02-19 23:47:00,67.3,59.5,29.90,North,0,1.8,3.4,76,0.00,,,0.00,WUHU216HW,2013-02-19 20:47:00,
2013-02-19 23:52:00,67.3,59.5,29.89,North,0,1.6,3.4,76,0.00,,,0.00,WUHU216HW,2013-02-19 20:52:00,
2013-02-19 23:57:00,67.1,59.3,29.90,North,0,2.7,3.4,76,0.00,,,0.00,WUHU216HW,2013-02-19 20:57:00,